OPS 4682 DEB, 14047

Orbit data source: Space-Track

OPS 4682 DEB, 14047 is space debris in LEO originally from a launch on Sat, 03 Apr 1965 UTC launched from the Air Force Western Test Range (AFWTR). Debris objects in space refer to the collection of defunct objects orbiting the Earth. Examples of debris include non-operational satellites, rocket bodies, and fragments generated from explosions, collisions, or faulty payload assembly.

Loading next visibility...
Identifier
14047, 1965-027J
Orbit
LEO
Country
Flag of USUS
Related business
Manufacturer
Unknown
Mission
Spacecraft
Bus & Motor
Unknown
Mass
Unknown
Launch date (UTC)
1965-04-03 (61 years ago)
Launch vehicle
Unknown
Launch site
Air Force Western Test Range (AFWTR)
Object type
Payload
Rocket body
Debris
Shape & HBR
Unknown shape, 0.1 m
Radar Cross Section
Small (<0.1 m²)

Expand to show TLE details & history
Last TLE update: 2 days ago

TLE from 2 days ago
0 OPS 4682 DEB
1 14047U 65027J   26102.97405308 -.00000278  00000-0 -99113-3 0  9998
2 14047  90.2431   1.5579 0030960 282.9237  95.2489 12.96625314825567
Epoch: 2026-04-12T23:22Z
TLE epoch observation values (Epoch: 2026-04-12T23:22:38.186Z)
Latitude
18.51885°
Longitude
169.64645°
Altitude
1,279.949 km
Speed
7.216 km/s
True Right ascension
00h 05m 54s
True Declination
18° 25' 21"
Sunlit
Object was in daylight at epoch
Visualization orbit readout
Latitude
Unknown
Longitude
Unknown
Altitude
Unknown
Speed
Unknown
Apparent Right ascension
Unknown
Apparent Declination
Unknown
Sunlit
N/A
Visualization observer readout
Local Sidereal Time
05:49:50
Azimuth
Unknown
Elevation
Unknown
Doppler factor
Unknown
Orbital elements
Apogee altitude
1,296.156 km
Perigee altitude
1,248.783 km
Semi-major axis
7,650.606 km
Eccentricity
0.0031
Inclination
90.2431°
RAAN
1.5579°
Arg. of periapsis
282.9237°
True anomaly
95.60206°
Mean anomaly
95.2489°
Eccentric anomaly
95.42549°
Mean motion
3.24339 °/min
Orbital period
110.99 mins
BSTAR
-0.00099113
Loading maneuver chart data...
Computing Atmospheric mass density...
Loading historical data...
Loading historical data...
Loading historical data...
Loading historical data...
Loading historical data...
Loading historical data...
Loading historical data...

Documentation

Showing up to 5 results
|